DW4236 Weather Reports


time (UTC)temp
F
wind
direction
speed
knots
gust
knots
rain 1hr
in
rain 24hr
in
rain mn
in
humidity
%
barometer
mb
20260510222104 67 318 0.9 2.6 0.00 0.03 0.03 73 1014.4
20260510221603 67 337 2.6 7.0 0.00 0.03 0.03 72 1014.2
20260510221104 67 277 2.6 4.3 0.00 0.03 0.03 72 1014.2
20260510220604 66 317 4.3 7.8 0.00 0.03 0.03 72 1014.3
20260510220104 67 14 2.6 5.2 0.00 0.03 0.03 72 1014.3
20260510215104 67 339 0.9 2.6 0.00 0.03 0.03 72 1014.4
20260510213604 67 6 0.9 2.6 0.00 0.03 0.03 72 1014.4
20260510213103 67 324 0.9 2.6 0.00 0.03 0.03 71 1014.2
20260510212105 67 4 1.7 6.1 0.00 0.04 0.03 70 1014.1
20260510211603 67 326 1.7 6.1 0.00 0.04 0.03 69 1014.0
20260510211104 67 347 0.9 2.6 0.00 0.04 0.03 71 1014.0
20260510210605 67 343 1.7 5.2 0.00 0.04 0.03 70 1014.0
20260510205604 68 47 2.6 5.2 0.00 0.05 0.03 71 1013.8
20260510205103 67 317 0.9 7.0 0.00 0.05 0.03 71 1013.8
20260510204603 67 347 2.6 7.0 0.00 0.05 0.03 71 1013.7
20260510204104 68 335 2.6 7.8 0.00 0.06 0.03 71 1013.8
20260510203604 67 49 3.5 10.4 0.00 0.07 0.03 73 1013.7
20260510203104 66 355 5.2 10.4 0.00 0.08 0.03 72 1013.7
20260510202604 66 318 1.7 7.8 0.00 0.08 0.03 75 1013.8
20260510202105 66 17 4.3 8.7 0.01 0.09 0.03 74 1013.7
20260510201105 65 3 1.7 7.8 0.01 0.10 0.03 76 1013.7
20260510200604 66 31 1.7 7.0 0.01 0.10 0.03 75 1013.7
20260510195104 67 27 4.3 8.7 0.01 0.11 0.03 73 1013.7
20260510194603 67 22 4.3 8.7 0.01 0.11 0.03 72 1013.8
20260510194104 69 36 5.2 10.4 0.01 0.12 0.03 69 1013.7
20260510193104 72 0 0.0 0.9 0.01 0.12 0.03 68 1013.3
20260510192603 73 298 0.9 5.2 0.02 0.12 0.03 69 1013.4
20260510192104 72 274 0.9 2.6 0.01 0.12 0.02 72 1013.5
20260510191605 72 304 1.7 2.6 0.01 0.12 0.02 72 1013.5
20260510190104 69 313 0.9 2.6 0.01 0.13 0.02 79 1013.6
20260510185604 68 305 1.7 2.6 0.01 0.14 0.02 82 1013.7
20260510185104 67 302 0.9 1.7 0.01 0.15 0.02 81 1013.8
20260510184604 67 303 0.9 2.6 0.01 0.16 0.02 80 1013.8
20260510184103 67 312 1.7 4.3 0.01 0.16 0.02 78 1013.8
20260510183604 68 283 0.9 2.6 0.01 0.17 0.02 76 1013.8
20260510183103 68 290 0.9 4.3 0.01 0.17 0.02 72 1013.7
20260510182604 69 296 0.9 7.0 0.00 0.16 0.01 69 1013.6
20260510182104 70 278 4.3 7.0 0.00 0.16 0.01 66 1013.5
20260510181603 70 270 0.9 4.3 0.00 0.17 0.01 64 1013.5
20260510181104 71 300 2.6 6.1 0.00 0.17 0.01 65 1013.4
20260510180604 71 324 0.9 2.6 0.00 0.17 0.01 65 1013.3
20260510180104 70 332 0.9 2.6 0.00 0.19 0.01 65 1013.3
20260510175603 70 340 0.9 7.0 0.00 0.21 0.01 65 1013.4
20260510175104 71 276 3.5 7.0 0.00 0.22 0.01 65 1013.4
20260510174603 71 312 2.6 6.1 0.00 0.22 0.01 63 1013.4
20260510173603 71 323 1.7 5.2 0.00 0.25 0.01 66 1013.4
20260510173104 71 309 2.6 7.0 0.00 0.25 0.01 64 1013.4
20260510172604 71 272 1.7 4.3 0.00 0.25 0.01 65 1013.4
20260510172104 72 311 0.9 4.3 0.00 0.25 0.01 63 1013.4
20260510171605 71 350 3.5 8.7 0.00 0.25 0.01 66 1013.4
20260510170104 72 0 2.6 6.1 0.00 0.25 0.01 66 1013.7
20260510165104 71 245 2.6 11.3 0.00 0.25 0.01 67 1013.7
20260510164604 71 335 2.6 7.0 0.00 0.25 0.01 66 1013.6
20260510164104 70 353 4.3 7.8 0.00 0.25 0.01 68 1013.7
20260510163603 70 346 2.6 11.3 0.00 0.25 0.01 70 1013.7
20260510163104 70 266 3.5 8.7 0.00 0.25 0.01 67 1013.7
20260510162604 69 311 1.7 5.2 0.00 0.25 0.01 70 1013.6
20260510162105 68 347 2.6 7.8 0.00 0.25 0.01 69 1013.8
20260510161603 68 294 5.2 10.4 0.00 0.25 0.01 69 1014.0
20260510161104 68 32 1.7 2.6 0.00 0.25 0.01 69 1014.0
20260510160603 68 336 1.7 6.1 0.00 0.25 0.01 69 1014.0
20260510160105 69 289 2.6 8.7 0.00 0.25 0.01 69 1014.1
20260510155604 69 290 3.5 13.0 0.00 0.25 0.01 68 1014.0
20260510154604 68 271 4.3 8.7 0.00 0.26 0.01 72 1014.2
20260510154104 68 247 4.3 8.7 0.00 0.26 0.01 71 1014.2
20260510153604 68 315 2.6 7.8 0.00 0.26 0.01 71 1014.2
20260510152603 69 355 3.5 7.0 0.00 0.26 0.01 72 1014.1
20260510152104 68 289 2.6 8.7 0.00 0.27 0.01 75 1014.1
20260510151104 66 303 2.6 7.0 0.00 0.27 0.01 80 1014.0
20260510150105 66 192 0.9 2.6 0.00 0.27 0.01 81 1014.1
20260510145105 65 148 1.7 5.2 0.00 0.27 0.01 82 1014.0
20260510144605 65 174 0.9 2.6 0.00 0.27 0.01 83 1014.0
20260510144105 65 189 2.6 4.3 0.00 0.27 0.01 84 1014.0
20260510143605 64 199 0.9 5.2 0.00 0.27 0.01 85 1014.0
20260510143105 64 195 1.7 5.2 0.00 0.27 0.01 85 1014.1
20260510142604 63 192 1.7 4.3 0.00 0.27 0.01 88 1014.1
20260510142106 62 191 1.7 2.6 0.00 0.27 0.01 88 1014.3
20260510140105 60 193 4.3 8.7 0.00 0.27 0.01 92 1014.0
20260510135605 60 168 2.6 6.1 0.00 0.27 0.01 93 1014.1
20260510134605 59 221 1.7 4.3 0.00 0.27 0.01 95 1014.2
20260510134105 58 174 0.0 0.9 0.00 0.27 0.01 95 1014.3
20260510133605 58 174 1.7 2.6 0.00 0.27 0.01 96 1014.4
20260510133105 59 255 0.9 1.7 0.00 0.27 0.01 96 1014.4
20260510132604 58 255 0.9 2.6 0.00 0.27 0.01 96 1014.4
20260510132106 57 255 0.0 0.9 0.00 0.27 0.01 96 1014.3
20260510131605 57 255 0.9 2.6 0.00 0.27 0.01 96 1014.4
20260510131104 57 254 0.9 2.6 0.00 0.27 0.01 97 1014.4
20260510130605 56 212 0.9 2.6 0.00 0.27 0.01 97 1014.4
20260510130105 56 218 0.9 2.6 0.00 0.27 0.01 97 1014.3
20260510125105 54 354 0.0 0.0 0.00 0.27 0.01 97 1014.4
20260510124605 54 355 0.0 0.0 0.00 0.27 0.01 97 1014.3
20260510124105 54 355 0.0 0.0 0.00 0.27 0.01 97 1014.2
20260510123604 54 355 0.0 0.0 0.00 0.27 0.01 96 1014.3
20260510123104 54 355 0.0 0.0 0.00 0.27 0.01 96 1014.0
20260510122605 53 355 0.0 0.0 0.00 0.27 0.01 96 1014.0
20260510122106 54 355 0.0 0.0 0.00 0.27 0.01 96 1013.9
20260510121606 53 355 0.0 0.0 0.00 0.27 0.01 97 1013.9
20260510120605 53 355 0.0 0.0 0.00 0.27 0.01 96 1013.8
20260510115605 53 355 0.0 0.0 0.00 0.27 0.01 97 1013.7
20260510115106 53 355 0.0 0.0 0.00 0.27 0.01 96 1013.7
20260510114605 53 355 0.0 0.0 0.00 0.27 0.01 97 1013.8
20260510114105 53 355 0.0 0.0 0.00 0.27 0.01 97 1013.6
20260510113105 53 355 0.0 0.0 0.00 0.27 0.01 96 1013.5
20260510112604 53 355 0.0 0.0 0.00 0.27 0.01 96 1013.6
20260510112104 52 355 0.0 0.0 0.00 0.27 0.01 97 1013.5
20260510111605 52 355 0.0 0.0 0.00 0.27 0.01 97 1013.2
20260510111105 52 355 0.0 0.0 0.00 0.27 0.01 96 1013.2
20260510110604 52 355 0.0 0.0 0.00 0.27 0.01 96 1013.3
20260510110105 52 355 0.0 0.0 0.00 0.27 0.01 96 1013.1
20260510105605 51 355 0.0 0.0 0.00 0.27 0.01 96 1013.3
20260510105105 51 355 0.0 0.0 0.00 0.27 0.01 96 1013.1
20260510104604 51 355 0.0 0.0 0.00 0.27 0.01 96 1012.9
20260510104105 51 355 0.0 0.0 0.00 0.27 0.01 96 1012.9
20260510103104 51 355 0.0 0.0 0.00 0.27 0.01 96 1012.8
20260510102105 51 355 0.0 0.0 0.00 0.27 0.01 96 1013.0
20260510101606 51 355 0.0 0.0 0.00 0.27 0.01 96 1012.8
20260510101106 51 355 0.0 0.0 0.00 0.27 0.01 96 1012.7
20260510100606 51 355 0.0 0.0 0.00 0.27 0.01 96 1012.7
20260510100105 50 355 0.0 0.0 0.00 0.27 0.01 96 1012.5
20260510094604 50 355 0.0 0.0 0.00 0.27 0.01 96 1012.6
20260510094104 50 355 0.0 0.0 0.00 0.27 0.01 96 1012.6
20260510093605 50 355 0.0 0.9 0.00 0.27 0.01 96 1012.4
20260510093104 50 355 0.0 1.7 0.00 0.27 0.01 96 1012.2
20260510092606 50 354 0.0 0.9 0.00 0.27 0.01 96 1012.2
20260510092105 50 354 0.9 1.7 0.00 0.27 0.01 96 1012.3
20260510091105 49 354 0.0 0.9 0.00 0.27 0.01 96 1012.2
20260510090605 49 355 0.0 0.0 0.00 0.27 0.01 96 1012.4
20260510090105 49 355 0.0 0.0 0.00 0.27 0.01 96 1012.4
20260510085604 49 355 0.0 0.0 0.00 0.27 0.01 96 1012.5
20260510084605 50 355 0.0 1.7 0.01 0.27 0.01 96 1012.6
20260510084104 50 355 1.7 2.6 0.01 0.27 0.01 96 1012.6
20260510083605 50 352 0.9 1.7 0.01 0.27 0.01 96 1012.7
20260510082606 50 352 0.0 0.0 0.01 0.27 0.01 96 1012.9
20260510081605 50 352 0.0 0.0 0.01 0.27 0.01 96 1012.9
20260510080604 50 352 0.0 0.9 0.01 0.27 0.01 96 1013.0
20260510075604 50 352 0.0 1.7 0.01 0.27 0.01 96 1013.2
20260510075105 50 352 0.0 0.0 0.00 0.27 0.00 96 1013.3
20260510074606 50 352 0.0 0.0 0.00 0.27 0.00 96 1013.3
20260510074106 50 352 0.0 0.0 0.00 0.27 0.00 96 1013.5
20260510073604 50 352 0.0 0.0 0.00 0.27 0.00 96 1013.4
20260510073105 50 352 0.0 0.0 0.00 0.27 0.00 96 1013.4
20260510072604 50 352 0.0 1.7 0.00 0.27 0.00 96 1013.4
20260510072104 50 352 0.0 1.7 0.00 0.28 0.00 96 1013.4
20260510071605 50 352 0.0 1.7 0.00 0.28 0.00 96 1013.4
20260510071104 50 349 0.0 1.7 0.00 0.28 0.00 96 1013.5
20260510070104 49 290 0.9 2.6 0.00 0.30 0.00 96 1013.4
20260510065604 48 274 0.0 0.0 0.00 0.30 0.00 96 1013.1
20260510065105 48 274 0.0 0.0 0.00 0.30 0.00 95 1012.9
20260510064605 48 274 0.0 0.0 0.00 0.30 0.00 96 1012.8
20260510064105 47 274 0.0 0.0 0.00 0.30 0.00 95 1012.7
20260510063604 47 274 0.0 0.0 0.00 0.30 0.00 95 1012.8
20260510063104 47 274 0.0 0.0 0.00 0.30 0.00 95 1012.8
20260510062104 48 274 0.0 0.0 0.00 0.30 0.00 95 1012.9
20260510061605 48 274 0.0 0.0 0.00 0.30 0.00 95 1012.9
20260510061105 48 274 0.0 0.0 0.00 0.30 0.00 95 1013.1
20260510060604 48 274 0.0 0.0 0.00 0.30 0.00 95 1013.1
20260510060104 48 274 0.0 0.0 0.00 0.30 0.00 95 1013.1
20260510055104 48 274 0.0 0.0 0.00 0.30 0.00 95 1013.0
20260510053604 48 274 0.0 1.7 0.00 0.30 0.00 95 1012.8
20260510053105 48 274 0.9 1.7 0.00 0.30 0.00 95 1012.5
20260510052604 49 274 0.0 0.0 0.00 0.30 0.00 95 1012.3
20260510052105 49 274 0.0 0.0 0.00 0.30 0.00 95 1012.3
20260510051605 49 274 0.0 0.0 0.00 0.30 0.00 95 1012.3
20260510051105 49 274 0.0 0.0 0.00 0.30 0.00 95 1012.3
20260510050604 49 274 0.0 0.0 0.00 0.30 0.00 95 1012.3
20260510050104 49 274 0.0 2.6 0.00 0.30 0.00 95 1012.4
20260510045605 49 274 0.0 2.6 0.00 0.30 0.00 95 1012.5
20260510045105 49 271 0.9 4.3 0.00 0.30 0.00 95 1012.6
20260510044605 48 287 0.0 0.0 0.00 0.30 0.00 95 1012.7
20260510043604 48 287 0.0 0.0 0.00 0.30 0.00 95 1012.6
20260510043106 49 287 0.0 0.0 0.00 0.30 0.00 95 1012.5
20260510042605 49 287 0.0 0.0 0.00 0.30 0.00 95 1012.5
20260510042105 49 287 0.0 0.0 0.00 0.30 0.00 95 1012.5
20260510041105 49 287 0.0 0.0 0.00 0.30 0.00 95 1012.5
20260510040605 49 287 0.0 0.0 0.00 0.30 0.00 95 1012.4
20260510040105 49 287 0.0 0.0 0.00 0.30 0.00 95 1012.2
20260510035605 49 287 0.0 0.0 0.00 0.30 0.30 95 1012.2
20260510035105 49 287 0.0 0.0 0.00 0.30 0.30 95 1012.2
20260510034605 49 287 0.0 1.7 0.00 0.30 0.30 95 1012.2
20260510034105 49 287 0.9 2.6 0.00 0.30 0.30 95 1012.2
20260510033605 48 285 0.9 2.6 0.00 0.30 0.30 95 1012.1
20260510033104 48 281 0.0 0.0 0.00 0.30 0.30 95 1012.2
20260510032604 49 280 0.0 0.0 0.00 0.30 0.30 95 1012.2
20260510031604 49 281 0.0 0.0 0.00 0.30 0.30 94 1012.3
20260510031104 49 280 0.0 0.0 0.00 0.30 0.30 95 1012.2
20260510030105 49 280 0.0 0.0 0.00 0.30 0.30 94 1012.3
20260510025605 49 280 0.0 0.0 0.00 0.30 0.30 94 1012.3
20260510025105 49 281 0.0 0.0 0.00 0.30 0.30 95 1012.2
20260510024605 49 281 0.0 0.0 0.00 0.31 0.30 94 1012.4
20260510024106 49 281 0.0 0.0 0.00 0.31 0.30 94 1012.4
20260510023105 49 281 0.0 0.0 0.00 0.31 0.30 94 1012.6
20260510022605 49 280 0.0 0.0 0.00 0.31 0.30 94 1012.4
20260510022104 49 280 0.0 0.0 0.00 0.31 0.30 94 1012.3
20260510021604 49 281 0.0 0.0 0.00 0.31 0.30 94 1012.2
20260510021105 50 281 0.0 0.0 0.00 0.31 0.30 94 1012.1
20260510020106 50 280 0.0 0.0 0.00 0.31 0.30 94 1012.2
20260510015605 50 281 0.0 0.0 0.00 0.31 0.30 94 1012.2
20260510015104 50 281 0.0 0.0 0.00 0.31 0.30 94 1012.2
20260510014606 50 281 0.0 0.0 0.00 0.31 0.30 94 1012.2
20260510014105 50 281 0.0 0.0 0.00 0.31 0.30 94 1012.2
20260510013605 50 281 0.0 0.0 0.00 0.31 0.30 94 1012.3
20260510012605 51 281 0.0 0.0 0.00 0.31 0.30 93 1012.1
20260510012105 51 281 0.0 0.0 0.00 0.31 0.30 94 1012.1
20260510011605 51 281 0.0 0.0 0.00 0.31 0.30 93 1012.0
20260510010605 52 281 0.0 0.0 0.00 0.31 0.30 93 1011.8
20260510010106 52 281 0.0 0.9 0.00 0.31 0.30 93 1011.9
20260510005605 52 280 0.0 0.0 0.00 0.31 0.30 93 1011.8
20260510005105 52 280 0.0 0.0 0.00 0.31 0.30 93 1011.6
20260510004606 52 280 0.0 0.0 0.00 0.31 0.30 93 1011.6
20260510003605 53 280 0.9 2.6 0.00 0.31 0.30 93 1011.7
20260510002607 53 265 0.0 0.0 0.00 0.31 0.30 93 1011.5
20260510002105 53 265 0.0 0.0 0.00 0.31 0.30 93 1011.5
20260510001106 53 272 0.0 1.7 0.00 0.31 0.30 93 1011.4
20260510000605 54 214 0.0 2.6 0.00 0.31 0.30 93 1011.4
20260510000104 54 199 0.9 2.6 0.00 0.31 0.30 93 1011.4
20260509235605 54 196 1.7 4.3 0.00 0.31 0.30 93 1011.3
20260509235104 54 252 0.9 1.7 0.00 0.31 0.30 93 1011.2
20260509234606 54 198 0.9 2.6 0.00 0.31 0.30 93 1011.3
20260509234105 54 200 0.9 2.6 0.00 0.31 0.30 93 1011.2
20260509233605 54 201 1.7 4.3 0.00 0.31 0.30 93 1011.2
20260509233104 54 208 0.9 1.7 0.00 0.31 0.30 93 1011.2
20260509232605 54 209 1.7 6.1 0.00 0.31 0.30 93 1011.2
20260509232104 55 210 0.9 5.2 0.00 0.31 0.30 94 1011.1
20260509231605 55 194 1.7 5.2 0.00 0.31 0.30 94 1011.2
20260509231105 55 206 1.7 8.7 0.00 0.31 0.30 94 1011.3
20260509230604 55 201 3.5 7.0 0.00 0.31 0.30 94 1011.3
20260509230106 55 189 0.9 2.6 0.00 0.31 0.30 94 1011.3
20260509225105 55 195 0.9 7.8 0.00 0.31 0.30 94 1011.3
20260509224604 55 214 0.9 2.6 0.00 0.31 0.30 94 1011.3
20260509223605 55 220 0.9 2.6 0.00 0.31 0.30 94 1011.1